RH
74 44 24 42 78 64 67 63 65 69 75 84 83 84 93 90 84 77 62 47 70 89 53 66 72 68 58 77 75 72 69 66 65 67 64 50 29 20 26 30 38 33 28
61 36 25 41 58 57 65 61 69 76 77 79 81 83 75 84 75 61 46 62 84 89 48 49 33 39 52 61 70 69 68 62 59 57 48 28 19 22 29 37 32 31 29
53 39 30 39 45 59 60 67 77 76 80 79 84 81 71 65 55 38 58 73 91 92 81 73 34 26 28 31 35 44 48 59 68 73 68 69 37 34 36 38 40 40 37
52 48 33 41 61 83 61 68 85 85 84 87 84 72 48 37 30 85 90 89 92 86 75 71 21 16 17 18 22 28 43 67 85 91 82 76 61 44 62 44 45 48 57
59 56 48 66 75 72 68 82 90 92 91 88 80 48 22 16 19 88 85 86 88 88 83 46 23 26 28 29 29 30 44 64 75 88 87 73 45 43 70 79 84 82 85
70 56 57 98 93 76 91 93 94 92 97 85 66 28 13 13 15 44 80 80 80 78 57 23 32 35 36 39 43 48 68 82 85 64 63 52 32 32 70 81 86 90 90
76 65 59 70 81 65 89 94 89 89 92 74 57 22 14 14 15 20 36 64 55 36 24 34 39 38 37 39 42 49 63 71 77 71 48 38 30 30 39 73 88 92 93
79 84 82 62 56 72 82 93 93 89 91 80 59 24 16 16 17 23 31 36 32 25 34 43 37 34 33 34 36 41 60 69 68 52 34 37 28 27 30 56 66 68 66
78 78 74 53 32 35 57 92 98 91 93 81 60 27 18 18 20 26 30 28 26 34 44 40 37 34 33 33 32 33 39 43 50 36 33 35 49 66 77 73 78 74 76
76 75 59 35 29 27 32 56 98 98 95 82 63 36 20 19 20 21 24 26 34 50 51 42 39 36 37 36 34 30 28 28 28 27 34 33 70 75 85 88 90 91 62
81 82 71 42 32 31 32 30 37 79 88 76 53 39 22 23 24 26 28 33 37 48 56 45 40 41 41 42 39 31 27 27 28 29 42 54 71 89 84 98 98 82 75
84 84 80 74 61 36 34 28 31 42 51 57 45 46 30 24 26 30 34 38 43 44 55 49 40 40 42 43 42 35 32 30 32 38 47 56 73 97 93 97 83 68 54
82 86 85 81 76 54 51 51 35 36 46 61 49 42 46 29 38 35 31 34 38 46 53 50 41 40 40 43 44 43 40 32 32 37 40 47 52 49 52 51 48 39 27
84 84 82 81 82 76 78 72 68 41 49 58 52 56 61 41 50 67 62 53 47 39 42 45 43 44 42 40 39 43 45 38 34 36 39 46 50 44 42 32 28 28 20
64 79 83 81 83 82 84 82 72 72 65 67 60 64 72 77 65 72 79 68 64 70 48 47 46 47 40 41 44 44 47 46 40 38 40 40 44 39 30 25 24 22 19
67 54 65 70 78 83 86 87 82 82 80 83 80 73 78 85 86 82 81 81 81 84 77 66 77 75 65 53 48 46 48 52 46 42 44 42 43 43 30 23 21 20 18
66 65 60 57 60 68 76 85 89 90 91 92 92 85 77 81 85 91 92 90 77 75 86 88 93 96 91 73 60 49 47 52 51 47 45 46 41 39 30 26 20 20 18
66 66 71 72 73 69 69 71 76 90 93 94 93 93 85 79 74 78 83 81 80 79 82 87 87 96 94 88 70 59 51 50 54 52 48 46 42 40 34 27 20 19 19
36 41 50 59 62 71 76 76 76 82 96 98 97 92 81 77 85 84 78 74 78 84 82 86 85 92 95 92 88 70 61 54 54 55 53 50 45 40 35 26 20 20 20
25 34 36 37 43 45 43 58 72 80 84 85 83 82 85 86 81 83 87 88 84 83 83 88 93 92 95 89 96 88 69 60 55 57 56 54 50 44 39 29 24 21 20
24 25 32 35 36 43 54 55 62 69 64 64 72 70 72 70 81 88 76 73 86 85 78 82 89 95 91 91 92 92 71 62 58 57 58 56 54 50 41 34 27 25 23
28 28 30 32 32 34 36 38 43 50 60 64 61 68 68 72 78 83 93 92 74 86 88 83 78 80 92 98 98 88 61 61 65 61 60 60 57 52 46 37 32 28 27
27 26 26 27 28 29 30 34 37 41 44 46 49 53 52 54 58 66 75 75 85 91 89 80 76 72 73 83 98 92 64 66 64 60 59 61 60 56 51 43 37 32 30
27 26 25 26 27 29 33 37 38 39 41 42 42 42 44 48 61 66 62 69 77 82 85 90 88 82 92 85 90 98 90 73 64 63 60 62 63 59 54 48 42 37 32
42 37 32 30 30 30 30 31 31 30 29 29 32 36 44 62 77 72 71 67 84 81 88 99 100 97 84 95 99 94 85 80 74 69 65 64 62 58 56 51 47 42 38
52 46 44 41 40 39 37 36 34 32 30 32 30 31 40 53 67 78 79 80 81 90 93 90 97 98 99 100 98 100 99 91 81 75 68 68 69 62 57 60 64 59 47
Wind_Speed
14 13 15 18 18 17 15 13 12 10 8 7 5 4 3 3 4 5 7 11 13 12 11 8 9 8 7 8 8 9 10 6 3 2 3 6 6 6 8 11 11 11 10
15 17 17 19 17 16 15 15 13 12 9 6 5 6 3 3 4 5 8 12 13 10 12 12 8 7 7 7 7 6 6 6 5 6 9 10 8 9 9 9 10 10 11
17 21 19 19 18 17 15 15 15 12 9 7 7 1 2 3 5 9 12 13 11 10 8 8 8 6 7 7 7 8 10 12 11 9 11 12 10 9 9 9 10 11 12
17 21 20 20 21 18 15 15 16 12 10 9 4 1 2 5 9 16 13 13 12 9 7 7 9 11 12 13 14 15 15 13 13 12 8 10 7 8 9 9 9 9 11
17 20 21 21 20 18 17 17 16 13 10 7 2 3 5 8 13 16 13 11 10 6 4 6 9 12 13 14 15 15 14 11 12 6 3 4 6 7 10 9 9 10 11
14 19 19 21 19 21 18 17 15 12 9 6 5 5 7 9 11 14 12 9 7 5 4 7 9 10 11 12 13 13 12 11 8 7 3 4 5 6 9 9 8 9 9
13 15 14 17 18 22 20 16 16 11 8 8 4 6 8 9 9 10 10 9 7 7 7 8 8 8 9 10 11 11 10 9 5 3 4 3 4 3 4 6 5 3 4
12 12 11 13 16 20 20 16 16 13 9 6 4 4 7 9 10 10 9 9 8 8 8 7 7 8 8 8 9 9 8 5 3 1 2 3 4 1 1 3 2 2 2
11 9 11 14 15 18 19 17 14 13 9 7 5 5 5 6 10 12 11 10 9 9 8 6 6 6 7 7 7 7 5 3 2 2 3 4 2 2 5 3 3 1 2
9 5 9 12 12 12 14 16 15 14 13 9 7 6 7 7 7 8 10 11 11 9 8 6 5 5 5 5 5 4 3 1 2 2 2 2 2 4 6 4 2 1 3
8 6 6 9 9 10 11 11 12 14 13 11 10 8 7 8 8 9 9 9 9 8 9 7 5 5 4 4 3 3 3 2 4 2 1 1 4 6 7 7 4 4 7
10 6 3 4 5 10 10 11 11 12 12 11 10 10 9 9 9 10 10 10 10 9 9 7 7 6 6 6 6 5 4 4 5 4 4 4 5 7 8 7 6 8 8
21 16 12 6 4 8 10 8 10 13 12 12 9 7 10 12 13 11 11 11 11 11 9 9 8 8 9 8 7 6 6 6 9 7 7 7 9 10 9 8 9 9 8
22 23 18 14 9 8 7 8 8 13 12 12 11 8 7 12 14 11 10 11 13 13 13 12 12 12 12 10 10 9 8 8 12 10 10 10 10 11 10 10 9 9 7
19 24 27 22 19 16 15 13 11 10 11 8 11 10 9 11 14 13 14 13 13 12 15 14 14 13 13 13 12 13 11 10 14 14 13 13 12 13 13 12 10 9 6
9 10 20 25 23 22 20 16 13 11 11 11 11 12 12 14 14 15 17 18 18 17 15 15 15 15 16 15 16 15 15 13 16 16 16 15 15 15 15 14 11 10 8
6 4 4 8 18 22 22 23 19 18 17 17 15 14 16 18 18 18 19 21 21 20 20 15 17 19 20 20 19 18 18 17 17 19 20 19 17 16 17 16 14 13 11
10 11 12 11 10 15 21 21 23 22 23 18 21 18 17 18 20 24 23 26 24 21 21 22 23 23 22 23 23 21 20 19 19 21 22 23 20 18 17 19 18 15 15
11 10 9 11 12 13 12 14 21 25 22 24 22 23 22 22 23 23 28 28 28 27 26 26 25 29 27 28 27 25 24 24 23 23 24 25 24 21 19 20 22 18 18
15 19 15 14 13 14 16 17 17 19 22 24 25 25 26 25 25 27 28 29 31 32 30 30 32 29 33 31 30 29 28 27 26 27 28 27 26 26 23 22 22 22 20
22 20 21 22 12 9 15 19 21 25 25 25 26 29 29 28 27 29 31 31 32 33 34 33 34 32 31 33 30 30 31 31 31 30 29 30 30 29 28 26 23 23 23
20 19 19 22 24 23 21 19 18 23 27 28 28 27 28 32 31 30 32 34 34 36 37 36 36 35 32 34 36 32 27 34 38 36 34 34 34 32 31 30 28 26 25
15 19 22 24 26 29 31 31 30 28 29 29 28 30 31 29 27 31 37 36 36 36 38 37 36 39 38 38 39 32 14 21 23 29 37 38 36 36 35 33 32 30 28
5 8 8 9 12 19 25 29 28 29 32 32 32 30 32 31 30 27 25 27 35 40 41 41 38 38 41 41 42 42 42 34 19 14 23 30 37 37 37 36 35 33 31
4 5 5 5 6 8 10 11 13 18 23 27 30 31 30 25 23 25 25 25 24 25 37 37 39 39 41 41 45 46 45 46 42 35 30 28 28 34 37 37 38 35 34
7 7 7 8 9 11 13 14 15 15 16 17 18 21 23 25 25 24 25 24 22 24 21 27 32 35 38 42 45 47 47 45 46 42 39 38 35 34 37 36 40 38 36
Wind_Direction
172 178 168 157 145 139 129 121 115 111 106 104 88 76 79 76 66 65 75 99 108 92 85 102 78 76 101 108 106 94 93 102 100 47 7 17 41 63 62 52 54 68 77
169 172 167 159 150 138 135 130 126 120 113 99 81 109 54 70 79 90 99 115 116 105 91 78 68 81 111 129 127 110 106 103 91 73 68 57 68 75 71 65 72 73 73
175 166 165 153 150 145 143 139 136 130 121 109 127 163 18 105 103 100 103 116 119 125 93 61 53 76 100 110 123 129 117 100 86 76 73 64 61 75 78 79 78 77 77
179 166 161 152 151 149 148 146 139 138 140 158 157 9 98 119 119 114 110 122 136 123 89 53 66 85 94 99 104 113 115 109 92 75 67 56 46 78 73 80 78 77 75
175 167 163 155 159 156 152 145 142 146 151 166 152 104 116 118 129 136 141 132 134 132 86 65 88 93 96 101 106 114 116 112 118 133 104 46 45 74 77 79 73 78 90
170 174 167 151 154 159 154 147 153 159 174 201 141 119 116 123 135 150 148 145 141 141 119 101 97 96 99 104 108 115 117 114 107 110 122 29 50 79 98 94 109 116 114
168 168 179 166 167 162 164 156 159 166 181 159 135 132 130 127 132 145 156 161 151 134 120 110 101 99 102 108 113 120 121 125 112 57 49 41 40 62 115 150 163 164 156
168 174 188 196 167 162 170 160 165 166 188 172 144 145 148 141 141 145 145 147 140 131 121 109 105 106 109 114 118 125 130 128 109 271 42 31 359 349 158 169 180 234 287
176 201 211 200 173 168 172 160 164 169 186 187 164 155 158 159 150 153 151 148 146 139 131 118 116 116 115 115 121 132 145 115 80 320 358 354 1 48 120 153 205 285 325
192 188 190 187 177 173 169 174 167 178 187 204 180 173 169 169 166 160 160 159 157 155 153 138 133 126 120 119 125 135 158 134 217 278 344 14 107 107 135 172 195 140 338
182 165 131 165 175 180 183 191 186 189 195 206 191 191 188 187 183 181 181 177 182 173 174 167 166 161 157 150 154 174 201 224 252 281 317 152 137 155 168 189 199 262 300
170 169 173 149 170 186 186 201 197 199 207 213 202 201 199 203 205 205 199 204 201 203 197 200 199 195 198 197 192 208 226 242 255 265 268 248 203 179 203 204 245 281 289
171 178 194 200 232 212 183 192 210 212 215 218 224 210 213 206 210 211 219 220 223 223 220 223 225 228 226 217 215 223 235 248 261 261 266 263 243 250 249 257 263 277 281
182 173 182 192 189 243 227 222 230 221 220 226 237 210 220 228 228 233 238 250 245 243 241 241 240 237 242 239 234 241 241 242 254 259 264 263 264 262 260 263 265 263 263
196 195 187 192 190 203 231 236 234 220 216 227 237 235 223 235 248 252 266 270 258 263 256 249 242 247 245 247 250 251 248 239 254 259 261 265 273 260 255 261 261 252 237
231 222 203 206 205 206 212 234 234 238 250 251 264 256 250 240 251 262 263 276 271 264 263 271 266 260 264 258 255 254 255 249 252 258 263 266 271 268 255 257 253 245 236
237 247 238 214 222 221 220 216 215 221 231 246 254 256 253 250 246 251 258 265 271 266 263 260 261 260 263 260 256 255 256 252 249 256 262 265 267 270 259 250 247 243 239
246 253 251 246 234 229 234 238 225 220 223 234 238 249 250 246 250 249 252 259 263 261 255 246 252 252 255 263 264 260 260 254 247 253 259 263 264 265 261 251 248 238 236
230 229 216 234 243 246 241 246 241 235 229 229 235 251 258 258 254 248 251 259 263 258 257 255 253 249 248 257 262 263 261 257 255 250 254 259 263 261 258 252 251 242 235
228 218 226 243 252 249 265 266 259 248 243 247 241 244 249 255 258 259 258 254 255 257 255 254 254 253 251 256 259 264 259 258 254 252 253 255 258 262 259 253 250 246 239
237 233 227 232 217 225 242 241 251 259 260 257 254 257 260 260 252 259 263 263 258 255 259 259 257 252 255 250 250 257 254 253 253 252 249 250 254 258 262 255 250 246 241
230 234 236 233 232 236 234 238 249 255 258 263 267 264 261 260 256 253 256 261 263 258 257 257 260 257 255 249 245 248 248 252 254 253 249 247 250 253 255 257 253 247 244
242 256 257 252 248 246 248 248 247 249 254 257 258 260 264 269 267 261 259 258 258 262 264 263 260 262 258 254 248 238 226 241 257 259 250 249 248 248 252 252 254 253 248
252 248 249 250 252 251 250 251 254 256 255 258 265 268 270 273 279 279 273 265 264 260 260 264 264 262 265 259 249 246 247 249 253 266 259 247 246 247 249 250 250 252 249
252 263 258 250 250 255 260 259 259 261 263 264 262 263 263 269 273 277 279 281 273 269 258 260 264 265 266 262 259 254 247 246 248 253 260 258 247 246 247 251 254 253 251
261 273 271 265 259 255 257 262 266 267 266 266 265 265 257 258 262 268 274 270 273 278 276 270 272 275 275 268 265 256 257 250 247 248 254 258 260 254 248 247 250 250 248